TimeIST,TemperatureF,Dew PointF,Humidity,Sea Level PressureIn,VisibilityMPH,Wind Direction,Wind SpeedMPH,Gust SpeedMPH,PrecipitationIn,Events,Conditions,WindDirDegrees,DateUTC
2:30 AM,76,66,64,29.89,2,Calm,Calm,,,,Haze,,2013-01-02 21:00:00
5:30 AM,73,62,61,29.86,2,Calm,Calm,,,,Haze,,2013-01-03 00:00:00
6:10 AM,69.8,60.8,73,30.01,2.5,Calm,Calm,-,N/A,,Haze,0,2013-01-03 00:40:00
7:10 AM,71.6,59.0,64,30.01,2.5,Calm,Calm,-,N/A,,Haze,0,2013-01-03 01:40:00
8:10 AM,75.2,59.0,57,30.04,2.5,WNW,5.8,-,N/A,,Haze,290,2013-01-03 02:40:00
8:30 AM,76,64,58,29.94,2,Calm,Calm,,,,Haze,,2013-01-03 03:00:00
9:10 AM,78.8,59.0,51,30.06,2.5,West,3.5,-,N/A,,Scattered Clouds,280,2013-01-03 03:40:00
11:30 AM,86,62,35,29.90,2,SW,5.8,,,,Haze,230,2013-01-03 06:00:00
12:10 PM,91.4,59.0,34,30.04,3.7,SSW,3.5,-,N/A,,Unknown,200,2013-01-03 06:40:00
1:10 PM,95.0,59.0,30,29.98,3.7,SE,4.6,-,N/A,,Partly Cloudy,140,2013-01-03 07:40:00
2:30 PM,91,62,27,29.80,6,SE,4.6,,,,Partly Cloudy,140,2013-01-03 09:00:00
2:40 PM,96.8,59.0,28,29.95,3.7,SE,4.6,-,N/A,,Scattered Clouds,140,2013-01-03 09:10:00
3:10 PM,95.0,59.0,30,29.95,3.7,South,6.9,-,N/A,,Scattered Clouds,170,2013-01-03 09:40:00
4:10 PM,95.0,59.0,30,29.92,3.7,South,3.5,-,N/A,,Scattered Clouds,180,2013-01-03 10:40:00
5:10 PM,91.4,57.2,31,29.92,3.7,South,3.5,-,N/A,,Scattered Clouds,190,2013-01-03 11:40:00
5:30 PM,90,64,31,29.80,2,Calm,Calm,,,,Partly Cloudy,,2013-01-03 12:00:00
6:10 PM,86.0,60.8,43,29.95,3.7,Calm,Calm,-,N/A,,Scattered Clouds,0,2013-01-03 12:40:00
7:10 PM,84.2,59.0,42,29.98,3.7,ESE,6.9,-,N/A,,Scattered Clouds,120,2013-01-03 13:40:00
8:10 PM,82.4,59.0,45,30.01,3.7,ENE,5.8,-,N/A,,Scattered Clouds,70,2013-01-03 14:40:00
8:30 PM,82,64,45,29.88,2,East,5.8,,,,Haze,90,2013-01-03 15:00:00
9:10 PM,80.6,57.2,45,30.04,3.7,SE,3.5,-,N/A,,Scattered Clouds,130,2013-01-03 15:40:00
11:30 PM,77,67,65,29.90,2,East,3.5,,,,Haze,90,2013-01-03 18:00:00